weather.gov     
National Weather Service

Other Surface Observations
NWS Homepage
This page is being discontinued on March 12, 2014.
The same data is available at this site. Please update your bookmarks.
Thank you, and we apologize for the inconvenience.
Please send an email to SR-SRH.Webmaster@noaa.gov with any concerns.


Current Version
Previous Version:    01  02  03  04  05  06  07  08  09  10  11  12  13  14  15  16  17  18  19  20  21  22  23  24  25  26  27  28  29  30  
   31  32  33  34  35  36  37  38  39  40  41  42  43  44  45  46  47  48  49  50  51  52  53  54  55  56  57  58  59  60  
[Printable]
812
SXUS55 KTWC 010316
OSOTWC

WEATHER ROUNDUP FOR SOUTHEAST ARIZONA
NATIONAL WEATHER SERVICE TUCSON AZ
815 PM MST THU JUL 31 2014

AZZ504>506-514-010415-
LOCATION       SKY/WX    TMP DP  RH WIND       PRES   REMARKS
TUCSON         PTCLDY    93  54  26 N3        29.98R
DAVIS-MONTHAN  CLOUDY    91  55  28 N5        29.97R
CHILDRENS PARK N/A       94  52  24 NW4               PIMA CO DEQ
ALVERNON/22ND  N/A      N/A N/A N/A N/A               PIMA CO DEQ
CHERRY/GLENN   N/A      N/A N/A N/A N/A               PIMA CO DEQ
TANGERINE      N/A       95 N/A N/A NW5               PIMA CO DEQ
CONTL RANCH    N/A       97  52  22 NW3               PIMA CO DEQ
GRANT/1ST      N/A       94  53  25 NW5               PIMA CO DEQ
CRAYCROFT/22ND N/A      N/A N/A N/A N/A               PIMA CO DEQ
GOLFLINKS/KOLB N/A      N/A N/A N/A N/A               PIMA CO DEQ
AJO/12TH       N/A       95  52  24 W4                PIMA CO DEQ
SAGUARO EAST   N/A      N/A N/A N/A N/A               PIMA CO DEQ
FAIRGROUNDS    N/A       91 N/A N/A W5                PIMA CO DEQ
SAGUARO        N/A       91  57  32 SW3               *SABINO CYN
SAN CARLOS     N/A       94  55  27 S3                *SAN CARLOS
GREEN VALLEY   N/A       89  58  35 SE2               PIMA CO DEQ
HORSE CAMP CYN N/A       89  51  27 W14G19            *ARAVAIPA CYN
RINCON MTNS    N/A       62  49  62 CALM              *NR MANNING CAMP
$$

AZZ509>511-010415-
LOCATION       SKY/WX    TMP DP  RH WIND       PRES   REMARKS
SAFFORD        MOCLDY    90  53  28 W8        29.96R
STRAY HORSE    N/A       63  45  51 E3G15             *
TRAIL CABIN    N/A       72  48  42 E8G17             *N OF GRANVILLE
BLACK HILLS    N/A       91  50  25 NW3               *N OF FT THOMAS
DRY LAKE       N/A       70  50  50 N2                *NATANES MTNS
NOON CREEK     N/A       77  58  52 SW6               *PINALENO MTNS
COLUMBINE      N/A       58  48  68 CALM              *PINALENO MTNS
GUTHRIE        N/A       78  47  34 W14G24            *SW OF GUTHRIE
$$

AZZ502-503-513-010415-
LOCATION       SKY/WX    TMP DP  RH WIND       PRES   REMARKS
NOGALES        CLOUDY    82  59  45 S8        30.08R
SELLS          N/A       90  59  36 SW7G11            *
SASABE         N/A       87  56  35 SW6G16            *ALTAR VLY
HOPKINS        N/A      127 109  43 W7                *SANTA RITA MTNS
CARR CYN       N/A       76  57  51 SW5               *W OF HEREFORD
$$

AZZ507-508-512-010415-
LOCATION       SKY/WX    TMP DP  RH WIND       PRES   REMARKS
SIERRA VISTA   MOCLDY    81  55  41 SW9       30.13R
DOUGLAS          N/A     78  61  55 E5        30.10
EMPIRE MTNS    N/A       75  56  52 W4                *LAS CIENEGAS NCA
MULESHOE RANCH N/A       86  49  28 NW7G13            *PRESERVE
HEADQUARTERS   N/A       72  60  65 E3                *CHIRICAHUA MTNS
$$

.............................NOTES.............................
THIS IS AN AUTOMATED COLLECTIVE WITH MINIMAL QUALITY CONTROL.
PIMA CO DEQ SITES HAVE NONSTANDARD WIND SENSOR HEIGHTS.
PIMA CO DEQ SITES DO NOT REPORT WIND GUSTS.
* INDICATES WIND SENSORS LOCATED AT 20 FEET INSTEAD OF 33 FEET.
..............................KEY..............................
SKY/WX - SKY CONDITION/WEATHER
TMP    - TEMPERATURE IN FAHRENHEIT
DP     - DEWPOINT IN FAHRENHEIT
RH     - RELATIVE HUMIDITY IN PERCENT
WIND   - DIRECTION AND SPEED IN MILES PER HOUR (MPH)
VRB    - VARIABLE WIND DIRECTION
PRES   - MEAN SEA LEVEL PRESSURE IN INCHES OF MERCURY
         F - FALLING PRESSURE   R - RISING PRESSURE
         S - STEADY PRESSURE
VSB    - VISIBILITY IN MILES
HX     - HEAT INDEX IN FAHRENHEIT
WCI    - WIND CHILL INDEX IN FAHRENHEIT
N/A    - NOT AVAILABLE
AFB    - AIR FORCE BASE
         DAVIS-MONTHAN IS DAVIS-MONTHAN AIR FORCE BASE
CYN    - CANYON
MTNS   - MOUNTAINS
NCA    - NATIONAL CONSERVATION AREA
NR     - NEAR
VLY    - VALLEY
CONTL  - CONTINENTAL
PIMA CO DEQ - PIMA COUNTY DEPT OF ENVIRONMENTAL QUALITY




U.S. Dept. of Commerce
NOAA National Weather Service
1325 East West Highway
Silver Spring, MD 20910
E-mail: w-nws.webmaster@noaa.gov
Page last modified: May 16, 2007
NATIONAL WEATHER SERVICE: for Safety, for Work, for Fun - FOR LIFE